Temperature
17 18 18 18 17 16 15 14 14 13 11 10 10 10 10 10 10 10 10 10 9 9 10 10 10 11 11 11 12 12 12 13 14 14 14 14 14 13 13 12 12 12 12 11
18 19 18 17 16 15 13 12 12 12 10 9 10 10 9 9 9 9 9 9 9 9 9 9 9 10 10 10 10 10 11 11 12 13 14 14 14 13 13 12 12 12 11 11
16 17 18 15 13 13 11 10 10 10 9 9 9 9 8 8 8 9 9 9 9 9 9 9 9 9 9 9 9 10 10 10 11 11 12 13 13 13 13 12 12 11 11 11
14 17 17 12 12 12 10 10 10 10 9 9 8 8 8 9 9 9 10 9 9 9 9 9 9 9 9 9 9 9 9 9 10 10 11 11 11 12 12 12 12 11 11 11
13 15 14 13 13 12 11 10 9 9 9 9 9 8 9 10 10 9 9 9 9 9 9 9 9 9 9 9 9 9 9 9 9 9 9 10 10 11 11 11 11 11 11 11
14 16 15 11 11 11 12 10 9 9 8 9 8 7 8 9 9 9 9 9 9 9 9 9 9 9 9 9 9 9 9 9 9 8 8 9 9 10 10 11 11 11 11 11
13 14 11 9 10 11 10 9 10 10 9 9 8 8 8 8 8 9 8 8 8 8 8 8 8 8 8 8 8 9 9 9 8 8 8 8 9 9 10 10 10 11 11 11
11 12 11 9 10 9 9 11 10 10 9 9 8 8 8 8 8 8 8 8 8 7 7 7 7 7 7 8 8 8 8 8 8 8 8 8 8 8 9 9 10 10 11 11
9 9 9 10 10 11 11 10 10 9 9 8 8 8 8 8 7 7 7 7 7 7 7 7 7 7 7 7 7 8 8 8 8 8 8 7 7 8 8 8 9 10 10 11
8 8 10 11 11 11 10 9 9 9 8 8 7 7 7 7 7 7 7 7 6 6 6 6 6 6 6 6 7 7 7 8 8 8 7 7 7 7 7 8 8 9 10 11
7 8 9 10 11 10 9 9 8 8 8 7 7 7 6 6 6 6 6 6 6 5 5 5 5 5 5 6 6 6 7 7 7 7 7 7 7 7 7 7 8 9 10 11
7 9 9 9 9 9 8 8 8 7 7 7 6 6 6 6 5 5 5 5 5 4 4 4 4 4 4 5 5 5 6 6 7 7 7 7 6 7 7 7 8 9 10 11
10 10 9 9 8 8 8 8 7 7 6 6 6 5 5 5 5 4 4 4 4 4 4 3 3 3 4 4 4 4 5 6 6 7 7 6 6 6 6 7 8 8 9 10
10 9 8 8 8 8 8 7 7 6 6 5 5 4 4 4 4 3 3 3 3 3 3 3 3 3 3 3 3 4 4 5 6 6 6 6 6 6 6 6 7 8 9 9
9 8 8 8 8 7 7 6 6 5 5 4 4 4 4 3 3 3 3 3 3 3 3 3 3 3 3 3 3 3 4 5 5 6 6 6 6 6 6 6 7 8 9 9
8 8 8 7 7 7 6 5 5 4 4 4 4 3 3 3 3 3 3 3 3 3 3 3 3 3 3 3 3 3 4 4 5 5 6 6 6 6 6 7 7 8 8 9
8 7 7 7 6 6 5 5 4 4 4 3 3 3 3 3 3 3 3 3 3 3 3 3 3 3 3 3 3 3 3 4 5 5 5 6 6 6 6 7 7 8 9 9
8 7 7 6 6 5 5 4 4 3 3 3 3 3 3 3 3 3 3 4 4 3 3 3 3 3 3 3 3 3 3 4 5 5 5 6 6 6 6 7 8 9 9 9
7 7 6 6 5 4 4 3 3 3 3 3 2 2 3 3 3 3 4 4 4 3 3 3 3 3 3 3 3 3 3 4 5 5 6 6 6 6 7 8 8 9 10 10
7 6 6 5 5 4 4 3 3 3 3 3 3 2 3 3 3 4 4 4 4 4 3 3 3 3 3 3 3 3 4 4 5 5 6 6 6 7 7 8 9 9 10 10
6 6 5 4 4 4 4 4 3 3 4 3 2 2 3 3 4 4 4 5 5 4 4 4 4 4 4 4 4 4 4 5 5 6 6 6 6 7 8 8 9 10 10 10
6 5 4 4 4 4 5 4 4 4 3 3 3 3 3 3 4 5 5 5 5 5 5 5 5 4 4 4 4 5 5 5 6 6 6 7 7 8 8 9 9 10 11 11
5 5 4 4 4 4 5 5 5 4 3 3 3 3 3 4 4 5 5 5 5 6 5 5 5 5 5 5 5 5 6 6 6 7 7 7 8 8 9 9 10 11 11 11
5 4 4 4 4 4 4 5 5 4 3 3 3 3 4 4 5 5 5 6 6 6 6 6 6 6 6 6 6 6 7 7 7 7 8 8 8 9 10 10 11 11 11 11
4 4 4 4 3 3 3 4 4 3 2 3 3 3 4 4 5 5 6 6 6 7 7 7 7 7 7 7 7 7 7 7 8 8 8 9 9 10 10 11 11 11 11 11
4 4 4 3 3 3 4 3 3 2 2 3 3 3 4 4 5 5 6 6 7 7 7 7 7 7 7 7 8 8 8 8 8 9 9 10 10 11 11 11 11 11 11 11
4 4 4 4 4 4 4 4 3 2 2 3 3 3 4 4 5 6 6 7 7 7 7 7 8 8 8 8 8 9 9 9 9 10 10 11 11 11 11 11 11 11 11 11
Wind_Speed
7 6 2 2 5 6 2 1 4 1 5 5 8 9 10 11 11 13 15 15 14 13 12 12 12 12 12 12 12 12 13 13 12 12 11 11 10 9 7 6 4 3 2 2
4 3 1 2 7 5 6 5 4 5 4 4 7 8 11 13 14 15 16 16 16 15 14 14 14 14 13 12 12 11 11 13 14 13 11 11 11 9 8 7 5 3 2 1
4 5 2 4 7 4 5 4 4 2 3 8 11 13 13 15 15 14 14 14 14 14 14 13 14 13 13 13 12 11 11 11 12 13 12 11 11 10 10 9 7 5 4 4
2 3 1 1 3 6 6 4 4 1 6 10 12 12 13 15 15 15 14 13 14 15 14 14 14 15 13 13 12 12 12 11 11 11 12 11 10 11 11 8 8 7 6 7
2 1 3 3 2 4 3 2 1 5 10 11 11 10 10 12 11 13 13 14 15 15 16 15 16 16 14 14 13 13 13 12 11 10 11 11 10 12 11 9 9 8 8 9
2 2 2 2 8 11 4 3 4 7 12 14 12 12 11 10 12 14 16 16 16 16 16 15 16 14 13 14 14 15 14 13 11 10 10 11 11 11 10 10 11 11 10 10
3 2 3 4 9 7 2 7 11 13 14 14 12 15 16 15 16 17 18 18 18 17 16 15 15 13 14 14 15 16 14 13 12 11 10 10 10 9 10 12 12 12 11 10
4 3 2 5 5 3 7 11 13 14 14 16 17 18 19 18 17 16 17 18 17 16 17 16 14 14 15 16 17 15 13 13 13 11 10 10 8 9 9 12 14 13 12 10
1 2 5 5 6 9 10 13 14 13 15 16 18 20 20 19 18 18 18 19 16 16 18 15 14 13 16 17 16 14 13 13 12 11 10 8 8 9 7 10 12 13 13 13
1 3 6 9 10 10 11 13 14 15 16 16 20 22 22 20 19 18 18 18 17 17 18 17 15 14 15 15 14 13 13 13 12 10 10 8 7 6 5 7 11 13 14 14
3 6 9 9 9 12 13 13 15 16 16 16 20 23 23 22 20 19 18 17 16 17 19 19 16 15 15 14 12 12 13 12 11 10 10 9 8 6 6 7 10 13 15 15
4 8 7 12 12 12 13 14 16 19 19 15 17 22 23 22 20 19 19 18 19 19 20 19 17 16 15 14 12 12 11 11 9 8 8 8 8 8 9 11 14 18 17 17
7 8 9 13 12 11 12 16 19 19 20 22 17 19 22 22 20 20 21 22 22 21 21 20 19 17 15 14 13 12 12 11 9 8 8 8 7 7 8 9 11 15 17 19
9 8 9 10 12 14 16 19 18 18 18 20 20 21 23 24 23 24 24 24 24 23 22 21 20 18 15 14 13 12 11 13 11 8 8 8 7 7 7 8 6 7 11 17
10 9 11 14 14 16 17 18 19 20 19 20 20 22 24 25 26 26 25 24 23 22 22 20 19 18 14 12 12 11 10 8 8 7 7 8 7 7 7 8 7 9 9 11
10 11 12 14 16 18 18 19 20 21 22 23 24 24 25 26 26 25 24 23 21 21 20 18 17 15 12 10 10 9 8 12 9 6 7 7 7 7 8 8 8 10 14 13
10 12 14 17 19 19 18 19 20 22 24 25 26 26 26 26 26 24 23 21 19 18 17 16 15 12 10 9 8 7 7 8 10 7 6 7 7 8 8 7 8 11 13 16
10 11 13 17 19 21 22 21 21 23 24 25 26 25 26 26 25 25 24 22 18 15 13 12 11 9 8 7 7 6 6 6 5 6 6 7 7 8 7 7 10 13 12 13
12 12 14 16 17 18 19 20 22 23 23 23 24 25 25 25 25 24 22 19 15 13 11 10 11 8 6 6 6 5 5 6 6 6 6 7 7 7 6 6 10 12 13 15
11 13 15 16 16 17 18 19 20 21 22 23 24 25 25 25 25 23 20 15 10 8 9 10 8 6 4 4 5 4 5 6 6 6 5 6 6 6 5 7 11 13 14 14
13 14 15 16 17 18 18 18 19 21 22 23 23 25 26 26 25 21 17 13 10 9 8 9 6 4 3 3 4 4 5 5 5 5 5 5 5 5 5 8 11 12 12 13
11 13 14 15 17 19 19 17 18 20 22 23 24 25 25 25 24 20 16 11 11 11 8 6 5 5 5 4 3 4 5 5 5 5 5 5 5 5 7 9 10 11 11 12
11 11 13 15 17 19 19 18 19 20 21 24 25 25 25 23 19 18 16 12 11 12 8 6 6 7 7 4 4 4 5 5 5 5 5 4 4 6 8 10 10 10 11 11
10 11 13 14 16 16 19 21 21 19 21 22 21 23 23 20 18 15 14 16 16 14 7 6 7 7 5 3 3 4 4 4 4 4 4 4 5 6 8 9 10 10 10 11
10 10 11 14 15 15 16 19 20 19 19 19 22 22 19 16 17 18 18 17 17 12 7 5 5 4 2 2 3 3 3 3 4 4 4 5 6 8 9 10 10 10 9 9
8 10 12 12 12 12 13 14 15 16 17 18 19 19 18 17 18 18 17 17 17 13 8 5 4 3 1 1 1 2 2 3 4 4 5 6 8 9 9 9 11 9 9 8
9 9 10 12 11 12 13 14 15 16 17 18 20 19 19 19 18 19 19 16 14 11 9 8 7 6 5 4 4 3 3 3 4 5 6 7 8 8 9 10 8 8 8 8
Wind_Direction
241 253 281 318 346 18 78 232 212 96 93 14 354 348 340 337 337 343 348 348 346 341 337 335 334 332 330 331 333 335 332 326 308 286 261 245 233 226 225 225 232 251 282 330
292 296 220 64 23 38 41 27 61 85 72 340 322 332 334 329 328 330 334 334 332 328 324 322 321 319 318 319 319 322 326 329 327 312 282 253 237 223 214 214 214 211 212 141
280 312 71 37 1 60 79 47 47 54 318 316 324 325 318 310 305 302 305 309 309 307 303 301 300 302 301 301 305 309 310 316 326 326 308 277 247 223 212 207 198 192 182 154
298 358 275 113 57 95 116 104 77 1 296 295 288 287 284 278 276 277 282 293 298 298 296 293 293 292 290 290 292 295 299 303 311 320 320 303 263 232 216 200 194 188 180 166
72 6 129 137 31 359 301 202 209 301 299 296 292 291 279 275 266 263 276 286 290 289 288 287 286 286 286 285 285 286 287 290 297 305 313 313 289 249 222 201 193 187 179 171
70 316 302 34 333 321 278 230 236 281 293 297 307 304 293 277 279 284 290 293 293 292 289 286 283 281 278 279 279 278 278 278 282 288 297 305 304 272 228 206 198 186 180 179
26 325 58 320 316 356 28 296 299 293 289 290 284 279 287 289 287 285 287 290 290 291 290 286 285 282 277 276 273 271 271 272 276 277 284 293 305 292 238 210 196 185 180 179
15 7 328 318 7 31 271 273 282 289 290 290 289 288 290 291 288 285 284 284 283 283 284 285 284 281 280 278 275 272 269 268 269 271 279 294 304 305 261 218 197 186 177 173
126 213 241 257 244 252 266 280 286 288 289 291 293 294 294 292 289 286 284 284 281 277 280 279 274 270 273 276 276 273 270 268 267 269 269 273 286 305 288 232 202 187 181 179
65 274 273 274 269 271 278 283 290 291 293 295 295 296 297 295 292 288 285 284 282 279 279 279 273 268 266 270 271 266 264 266 265 265 266 267 271 286 290 259 213 188 184 181
303 282 291 282 277 285 294 295 295 295 294 292 292 295 295 296 294 292 290 287 283 281 281 278 273 268 268 268 264 260 259 261 262 259 258 262 264 268 275 267 239 199 189 181
258 259 264 282 290 297 300 298 298 300 301 293 290 295 297 297 296 295 294 292 289 286 283 281 276 270 264 261 258 256 259 259 256 252 252 253 262 281 270 262 249 221 200 183
250 271 277 285 293 295 293 294 300 301 301 303 300 297 301 300 300 297 296 295 293 290 288 285 280 274 265 256 253 249 248 251 251 249 249 250 253 270 292 285 246 215 196 183
273 291 295 292 295 298 299 301 302 301 300 301 303 304 304 303 303 301 299 297 295 292 289 286 281 276 267 255 247 245 244 250 247 242 245 247 248 256 274 277 243 197 188 177
288 291 286 294 299 303 304 308 310 309 308 307 306 307 308 307 305 303 300 298 295 292 290 287 283 277 266 252 242 239 241 242 240 239 243 245 246 254 265 266 236 189 164 168
293 296 297 302 306 308 311 312 313 312 313 313 313 313 311 308 305 302 301 300 298 296 295 290 284 278 265 248 239 236 235 243 243 239 244 246 248 254 262 257 223 186 173 166
313 310 312 315 315 314 313 312 312 312 313 314 314 313 312 310 307 305 306 306 301 298 296 291 287 282 265 243 232 230 228 239 251 252 243 244 249 258 259 244 207 181 172 166
299 297 301 306 310 313 314 314 313 313 314 314 315 314 313 312 310 309 310 310 307 305 302 299 294 290 269 243 227 222 221 228 235 245 248 245 251 259 252 229 191 172 164 162
305 302 303 304 306 308 310 312 313 314 315 317 317 315 312 310 310 311 311 311 310 311 311 310 306 302 277 247 230 212 218 229 237 243 245 248 257 261 245 201 174 162 159 162
302 302 304 307 309 310 311 314 316 317 318 319 317 316 315 315 315 314 313 309 297 290 296 304 308 300 271 246 231 211 219 227 234 241 246 251 257 259 218 172 160 156 159 164
304 307 311 313 314 314 315 317 320 320 320 320 319 318 317 316 316 316 313 312 303 292 293 293 294 287 269 242 233 218 221 226 230 235 241 246 255 238 179 157 154 155 159 164
304 310 313 315 318 320 321 321 321 322 322 322 322 320 320 320 321 319 312 308 306 303 299 288 276 258 250 242 227 223 224 225 228 231 232 238 236 192 161 154 154 155 158 162
307 309 312 317 319 318 320 326 328 328 326 324 323 322 322 321 321 322 325 321 317 310 303 285 266 254 253 241 227 224 225 224 224 224 228 227 203 171 158 154 153 153 154 158
309 310 313 315 319 324 329 331 330 328 325 323 322 323 325 325 327 328 325 320 322 320 316 293 281 269 255 226 223 224 220 219 222 220 209 193 174 160 153 151 149 149 151 152
309 311 316 324 330 329 326 326 328 330 330 329 327 329 331 330 331 332 331 332 334 333 334 325 310 295 247 210 210 211 207 206 195 177 172 163 155 150 150 149 148 147 149 153
314 320 319 317 317 319 326 329 331 332 331 331 333 334 336 337 336 338 339 341 344 346 355 3 9 17 55 99 131 142 148 146 145 145 146 143 143 144 145 147 146 149 151 153
317 318 322 329 331 331 332 332 331 331 330 332 333 336 340 342 343 344 346 349 353 0 8 15 21 28 37 51 64 77 92 105 116 122 130 135 138 140 145 146 149 149 151 154
Height
1512 1508 1508 1510 1512 1513 1516 1519 1524 1523 1527 1532 1529 1526 1523 1519 1514 1510 1505 1502 1498 1495 1491 1487 1483 1480 1476 1472 1469 1465 1462 1458 1454 1451 1450 1450 1450 1450 1449 1447 1446 1444 1443 1441
1511 1506 1508 1513 1516 1517 1522 1524 1524 1527 1531 1531 1528 1525 1521 1517 1512 1507 1503 1499 1496 1492 1489 1485 1481 1477 1473 1469 1465 1461 1457 1453 1448 1444 1442 1441 1443 1444 1443 1442 1442 1441 1441 1440
1520 1513 1509 1523 1527 1525 1529 1531 1530 1531 1534 1529 1525 1522 1518 1513 1508 1504 1500 1497 1493 1490 1486 1482 1478 1474 1470 1465 1461 1457 1453 1448 1444 1439 1435 1433 1434 1436 1437 1437 1437 1437 1437 1437
1524 1517 1524 1536 1530 1528 1531 1532 1532 1531 1530 1527 1523 1518 1514 1510 1505 1501 1498 1494 1490 1485 1481 1477 1473 1468 1464 1460 1456 1452 1447 1443 1439 1435 1430 1427 1426 1428 1430 1431 1432 1433 1434 1435
1529 1526 1528 1532 1530 1530 1530 1531 1532 1530 1526 1522 1517 1513 1509 1506 1502 1498 1494 1489 1484 1478 1473 1468 1464 1460 1456 1452 1449 1445 1441 1437 1434 1430 1425 1422 1419 1419 1421 1424 1426 1427 1429 1431
1527 1526 1529 1539 1534 1530 1530 1529 1530 1527 1523 1518 1514 1510 1502 1500 1496 1491 1486 1481 1476 1470 1465 1459 1455 1452 1447 1443 1440 1437 1434 1431 1427 1424 1420 1416 1413 1412 1412 1415 1419 1422 1424 1427
1532 1531 1537 1541 1535 1530 1538 1536 1528 1524 1519 1514 1510 1505 1496 1491 1487 1483 1478 1473 1468 1462 1455 1450 1446 1442 1437 1433 1430 1428 1425 1423 1420 1417 1414 1410 1407 1404 1403 1405 1410 1415 1418 1422
1538 1538 1542 1539 1536 1538 1538 1529 1524 1518 1514 1508 1502 1495 1489 1483 1477 1473 1468 1463 1458 1452 1445 1441 1437 1432 1427 1423 1420 1418 1416 1413 1411 1409 1407 1404 1400 1397 1395 1396 1400 1406 1411 1416
1542 1544 1541 1537 1535 1533 1529 1524 1519 1514 1508 1502 1495 1487 1481 1474 1468 1462 1457 1451 1446 1440 1433 1429 1426 1422 1417 1413 1411 1408 1406 1404 1403 1401 1399 1397 1394 1391 1389 1387 1389 1397 1403 1409
1542 1540 1538 1534 1531 1528 1525 1520 1514 1508 1502 1496 1488 1480 1472 1465 1458 1451 1445 1440 1434 1428 1421 1416 1413 1410 1406 1403 1401 1398 1396 1395 1394 1393 1391 1390 1388 1385 1383 1380 1382 1387 1395 1401
1543 1539 1534 1529 1527 1523 1518 1513 1507 1501 1495 1489 1481 1471 1464 1455 1447 1440 1433 1427 1421 1415 1408 1403 1400 1397 1394 1392 1390 1388 1387 1386 1386 1385 1384 1382 1381 1379 1376 1374 1375 1380 1387 1394
1543 1536 1533 1526 1522 1517 1512 1506 1500 1493 1484 1478 1473 1462 1453 1444 1436 1428 1420 1414 1407 1401 1395 1389 1386 1382 1380 1379 1379 1377 1376 1376 1377 1377 1376 1375 1373 1372 1369 1368 1369 1374 1382 1389
1536 1532 1528 1522 1517 1512 1506 1499 1493 1486 1478 1469 1461 1453 1443 1433 1424 1416 1408 1401 1394 1387 1381 1376 1371 1368 1366 1366 1366 1366 1366 1367 1368 1368 1368 1368 1367 1365 1363 1361 1362 1366 1376 1385
1533 1528 1522 1517 1512 1506 1500 1492 1485 1478 1470 1461 1452 1442 1433 1423 1413 1405 1396 1388 1380 1373 1367 1362 1357 1354 1353 1353 1353 1354 1355 1357 1358 1360 1361 1361 1360 1359 1357 1356 1356 1360 1369 1380
1529 1525 1519 1513 1506 1500 1493 1485 1476 1468 1459 1450 1442 1432 1422 1412 1402 1393 1384 1376 1367 1360 1354 1349 1344 1341 1340 1340 1341 1343 1345 1347 1350 1352 1353 1353 1353 1352 1351 1351 1352 1356 1364 1374
1524 1519 1514 1508 1501 1494 1486 1478 1469 1459 1450 1441 1431 1422 1413 1403 1392 1382 1373 1364 1356 1348 1342 1337 1332 1329 1329 1329 1330 1333 1336 1339 1342 1344 1345 1346 1346 1346 1345 1345 1347 1351 1358 1367
1519 1513 1507 1500 1494 1487 1480 1472 1463 1453 1443 1433 1423 1413 1402 1392 1381 1371 1362 1354 1347 1339 1333 1327 1323 1320 1320 1321 1323 1325 1328 1332 1335 1337 1339 1340 1339 1339 1338 1339 1342 1347 1354 1363
1518 1513 1506 1500 1491 1482 1473 1465 1456 1447 1437 1427 1416 1406 1395 1384 1373 1362 1353 1344 1337 1331 1326 1321 1317 1314 1313 1315 1317 1319 1323 1326 1329 1331 1333 1334 1334 1333 1333 1334 1338 1344 1352 1360
1514 1508 1502 1495 1487 1478 1469 1459 1450 1440 1430 1420 1410 1399 1389 1377 1366 1355 1346 1338 1331 1325 1321 1316 1313 1310 1310 1311 1313 1315 1318 1322 1324 1327 1328 1329 1329 1328 1328 1331 1336 1343 1350 1357
1509 1503 1497 1489 1481 1473 1463 1454 1444 1434 1424 1415 1404 1393 1381 1370 1359 1349 1339 1332 1326 1321 1317 1313 1310 1308 1308 1309 1310 1313 1316 1318 1321 1323 1324 1325 1325 1325 1327 1331 1336 1342 1349 1356
1504 1498 1491 1483 1474 1466 1458 1448 1439 1429 1419 1409 1399 1388 1377 1365 1354 1344 1334 1327 1321 1317 1314 1311 1309 1308 1307 1308 1309 1311 1313 1316 1318 1320 1321 1322 1323 1324 1327 1332 1337 1343 1349 1356
1500 1493 1486 1478 1469 1460 1451 1443 1435 1425 1415 1405 1395 1385 1373 1361 1349 1339 1331 1324 1318 1314 1311 1309 1308 1307 1307 1308 1309 1310 1312 1314 1316 1318 1319 1321 1322 1324 1329 1333 1339 1345 1351 1357
1496 1489 1481 1473 1465 1456 1447 1439 1431 1422 1412 1403 1392 1381 1371 1360 1348 1338 1328 1321 1315 1311 1309 1307 1306 1306 1306 1307 1308 1309 1311 1313 1315 1317 1318 1320 1322 1326 1330 1336 1341 1347 1353 1359
1491 1484 1478 1470 1461 1452 1443 1435 1428 1420 1411 1401 1391 1381 1370 1358 1347 1338 1329 1321 1315 1311 1308 1307 1306 1305 1306 1306 1307 1309 1310 1312 1314 1316 1318 1321 1324 1329 1333 1339 1345 1351 1356 1362
1487 1481 1474 1466 1458 1450 1442 1434 1426 1417 1409 1400 1390 1380 1370 1360 1350 1339 1329 1322 1316 1311 1309 1307 1306 1306 1306 1307 1308 1309 1310 1312 1314 1317 1320 1323 1327 1332 1337 1343 1349 1354 1359 1364
1484 1478 1472 1464 1457 1450 1442 1434 1426 1418 1409 1399 1390 1380 1371 1361 1351 1341 1332 1325 1320 1315 1312 1310 1309 1309 1309 1309 1310 1312 1313 1315 1318 1321 1324 1328 1333 1337 1343 1348 1353 1358 1362 1366
1481 1475 1468 1461 1455 1449 1442 1434 1427 1418 1410 1402 1392 1383 1374 1364 1354 1345 1337 1331 1326 1322 1319 1317 1315 1315 1314 1315 1316 1317 1319 1321 1324 1327 1331 1335 1339 1343 1348 1352 1357 1361 1365 1368